Location: Frizzleburg
(41.0764°N, 80.4548°W)
Time: 07:20:56
(UTC+00:00)

Cosmos 839 Rocket - Pass Details

Date: 17 November 2019
Orbit: 968 x 2084 km, 65.9° (Epoch: 13 December)

Event Time Altitude Azimuth Distance (km) Brightness Sun altitude
Exits shadow 09:07:32 61° 47° (NE) 1,203 4.5 -34.6°
Drops below altitude 10° 09:12:38 10° 33° (NNE) 2,769 6.7 -33.6°
Sets 09:15:03 0° 33° (NNE) 3,684 7.5 -33.2°
